Погода в Посёлке станции Мстёра

Россия / Владимирская область     56°15′44″N   41°51′44″E
темп.,
°C
ветер,
м/с
пор.,
м/с
влажн.,
%
обл.,
%
осадки,
мм/ч
давл.,
гПа
погр.,
м
4 марта, чт
чт400:00−2з41193100 0.1 1004777
03:00−2зюз51295100 0.3 1002715
06:00−1юз51396100 1.3 997842
09:00+1з71497100 3.6 9941048
12:000зсз7147097 1.2 9951492
15:00−1зсз6117249 1.2 9971197
18:00−4зсз4108682 0.1 999573
21:00−6сз3109377 0.1 1000327
5 марта, пт
пт500:00−8сз239562 0.0 1001114
03:00−10зсз239655 0.1 100363
06:00−11зсз22960 0.0 100559
09:00−9зсз25900 0.0 1006214
12:00−5з248183 0.0 1006501
15:00−3з357990 0.1 1007821
18:00−7зсз239298 0.1 100846
21:00−9сз229553 0.1 101038
6 марта, сб
сб600:00−9зсз239696 0.1 1012108
03:00−11зсз269692 0.2 1013205
06:00−15сз389263 0.0 1015277
09:00−14сз358944 0.0 1016280
12:00−11сз347992 0.0 1016632
15:00−9сз357496 0.1 1016878
18:00−12з369194 0.0 1015212
21:00−13юз389047 0.0 1014191
7 марта, вс
вс700:00−12юз411890 0.0 1013283
03:00−12ююз511890 0.0 1010347
06:00−10ююз6148372 0.0 1006616
09:00−8ююз7148986 0.3 1002874
12:00−5ююз71389100 0.6 9971087
15:00−4ююз61291100 1.7 9931024
18:00−4ююз51295100 1.2 991835
21:00−7зсз61193100 2.7 991821
8 марта, пн
пн800:00−11з498935 0.2 992224
03:00−11з279651 0.3 994223
06:00−12зсз389592 0.1 995321
09:00−10зсз479095 0.2 997424
12:00−8зсз5974100 0.0 1000768
15:00−8зсз6108198 0.1 10031001
18:00−9зсз5109199 0.1 1005704
21:00−10сз499399 0.4 1008677